This demonstration page uses our WeatherBlox Daily Observations layout. Learn more.

Left ArrowRight Arrow

Hourly Observations for June 25, 2020

Temp ( °F °C ) Dew Point ( °F °C ) Humidity (%) Winds ( mph kmh ) Pressure ( in mb ) Visibility ( mi km ) Precip ( " mm )
12:53 am 00:53 Cloudy 62 16.7 58 14.4 86 86 WSW 6 9 29.81 1010 10 16 N/A
1:53 am 01:53 Partly Cloudy 61 16.1 58 14.4 90 90 WSW 7 11 29.80 1009 10 16 0.00 0.00
2:53 am 02:53 Clear 61 16.1 57 13.9 87 87 SW 14 22 29.80 1009 10 16 N/A
3:53 am 03:53 Clear 61 16.1 58 14.4 90 90 SW 13 20 29.81 1010 10 16 N/A
4:53 am 04:53 Mostly Clear 60 15.6 56 13.3 86 86 WSW 14 22 29.84 1010 10 16 N/A
5:53 am 05:53 Mostly Cloudy 59 15 56 13.3 90 90 WSW 8 13 29.86 1011 10 16 N/A
6:21 am 06:21 Mostly Cloudy 60 15.6 57 13.9 90 90 WSW 8 13 29.86 1011 10 16 N/A
6:53 am 06:53 Mostly Cloudy 60 15.6 57 13.9 90 90 W 9 15 29.89 1012 10 16 N/A
7:53 am 07:53 Cloudy 63 17.2 58 14.4 84 84 NW 15 24 29.91 1013 10 16 N/A
8:53 am 08:53 Cloudy 64 17.8 57 13.9 78 78 NW 9 15 29.94 1014 10 16 N/A
9:12 am 09:12 Cloudy 65 18.3 57 13.9 76 76 NW 8 13 29.91 1013 10 16 N/A
9:53 am 09:53 Mostly Cloudy 70 21.1 57 13.9 64 64 WNW 10 17 29.95 1014 10 16 N/A
10:53 am 10:53 Mostly Cloudy 70 21.1 55 12.8 59 59 NNW 8 13 29.96 1014 10 16 N/A
11:53 am 11:53 Partly Cloudy 73 22.8 53 11.7 50 50 undefined N/A 29.96 1014 10 16 N/A
12:53 pm 12:53 Mostly Sunny 77 25 50 10 39 39 WNW 9 15 29.94 1014 10 16 N/A
1:53 pm 13:53 Mostly Sunny 78 25.6 50 10 37 37 WNW 10 17 29.94 1014 10 16 N/A
2:53 pm 14:53 Partly Cloudy 80 26.7 48 8.9 33 33 W 12 19 29.93 1014 10 16 N/A
3:53 pm 15:53 Mostly Sunny 78 25.6 47 8.3 33 33 W 9 15 29.93 1014 10 16 N/A
4:53 pm 16:53 Mostly Cloudy 82 27.8 46 7.8 28 28 W 12 19 29.92 1013 10 16 N/A
5:53 pm 17:53 Sunny 81 27.2 46 7.8 29 29 WNW 12 19 29.91 1013 10 16 N/A
6:53 pm 18:53 Partly Cloudy 81 27.2 46 7.8 29 29 NW 8 13 29.90 1013 10 16 N/A
7:53 pm 19:53 Sunny 79 26.1 48 8.9 34 34 W 6 9 29.90 1012 10 16 N/A
8:53 pm 20:53 Sunny 75 23.9 49 9.4 40 40 W 5 7 29.90 1012 10 16 N/A
9:53 pm 21:53 Clear 65 18.3 52 11.1 63 63 S 8 13 29.91 1013 10 16 N/A
10:53 pm 22:53 Clear 62 16.7 53 11.7 73 73 N N/A 29.93 1014 10 16 N/A
11:53 pm 23:53 Clear 60 15.6 52 11.1 75 75 N N/A 29.93 1014 10 16 N/A

Powered by AerisWeather